Starlink 6174

operational
NORAD ID: 57366 Int'l Des: 2023-099 Owner: SPXS Country: US Constellation: starlink
LEOCIRCULAR

About Starlink 6174

Description loading...

Live Position

Loading 3D Globe...

Upcoming Passes

Altitude History

Altitude vs Time

uPlot chart will show altitude changes over time

Two-Line Element Set

1 57366U 23099AQ 26061.62187730 .00000112 00000-0 23381-4 0 9994
2 57366 43.0046 274.3247 0001185 279.1941 80.8768 15.02535791145200
Epoch: Mar 2, 2026 • Age: 29 hours

Current Status

Altitude 561.9 km
Velocity 7.58 km/s
Sub-Earth Point -16.33°S, 14.24°E
Launch Date Jul 16, 2023
Age 2.6 years
Type internet

Technical Details

Classification Payload
Mass 305.00 kg
Dry Mass 290.00 kg
Total Mass 305.00 kg
Length 0.20 m
Diameter 2.80 m
Span 9.00 m
Shape Box + pan
Manufacturer SPXS
Bus Type Starlink
Phase Status In Orbit
Owner/State SPXS/US

Large Constellations

Loading constellations...